Location: Austin
(30.3000°N, 97.7500°W)
Time: 03:30:26
(UTC-05:00)

MINOTAUR 4 R/B - Pass Details

Date: 18 March 2023
Orbit: 447 x 451 km, 98.0° (Epoch: 01 April)

Event Time Altitude Azimuth Distance (km) Brightness Sun altitude
Rises 20:32:16 0° 10° (N) 2,470 7.6 -11.8°
Reaches altitude 10° 20:34:18 10° 8° (N) 1,594 6.7 -12.3°
Maximum altitude 20:37:43 76° 284° (WNW) 472 4.1 -13.0°
Drops below altitude 10° 20:41:06 10° 197° (SSW) 1,584 6.8 -13.7°
Sets 20:43:07 0° 196° (SSW) 2,452 7.8 -14.2°
